Simultaneous Nadir Overpasses (SNOs) Predictions

Prediction of SNOs between METOP-B and NPP Satellite Orbit:

Table of predicted SNOs for the next 14.0 days since TLE Epoch: 8/14/2021
Index Date (METOP-B) Time (METOP-B) Lat,Lon (METOP-B) SZA (METOP-B ) Date (NPP) Time (NPP) Lat,Lon (NPP) SZA (NPP ) Distance(km) Time Diff (sec)
1 08/18/2021 14:43:36 73.47, -47.31 60.64 08/18/2021 14:42:30 73.46, -50.34 60.80 95.91 66
2 08/18/2021 15:34:20 -73.34, 119.74 119.47 08/18/2021 15:33:12 -73.36, 117.19 119.30 81.04 68
3 08/18/2021 16:25:04 73.14, -73.37 60.37 08/18/2021 16:23:54 73.16, -75.05 60.49 54.22 70
4 08/18/2021 17:15:47 -73.07, 93.80 119.69 08/18/2021 17:14:36 -73.07, 92.48 119.61 42.91 71
5 08/18/2021 18:06:31 72.87, -99.29 60.15 08/18/2021 18:05:18 72.86, -99.78 60.18 15.95 73
6 08/18/2021 18:57:15 -72.75, 67.78 119.96 08/18/2021 18:56:00 -72.77, 67.74 119.92 2.74 75
7 08/18/2021 19:47:55 72.75,-124.89 60.06 08/18/2021 19:46:46 72.76,-124.95 60.10 2.63 69
8 08/18/2021 20:38:37 -72.73, 42.39 119.95 08/18/2021 20:37:29 -72.72, 42.46 119.94 2.25 68
9 08/18/2021 21:29:17 72.73,-150.27 60.07 08/18/2021 21:28:15 72.72,-150.22 60.07 2.00 62
10 08/18/2021 22:19:59 -72.71, 17.01 119.95 08/18/2021 22:18:59 -72.72, 17.08 119.92 2.99 60
11 08/18/2021 23:10:39 72.71,-175.65 60.07 08/18/2021 23:09:45 72.72,-175.60 60.09 2.13 54
12 08/19/2021 00:01:20 -72.74, -8.27 119.90 08/19/2021 00:00:29 -72.73, -8.30 119.89 1.56 51
13 08/19/2021 00:52:00 72.74, 159.07 60.12 08/19/2021 00:51:15 72.72, 159.02 60.12 2.42 45
14 08/19/2021 01:42:42 -72.72, -33.65 119.89 08/19/2021 01:41:59 -72.73, -33.68 119.87 1.99 43
15 08/19/2021 02:33:22 72.72, 133.69 60.12 08/19/2021 02:32:45 72.73, 133.63 60.14 2.06 37
16 08/19/2021 03:24:04 -72.70, -59.03 119.89 08/19/2021 03:23:28 -72.68, -58.96 119.90 2.72 36
17 08/19/2021 04:14:44 72.70, 108.31 60.13 08/19/2021 04:14:14 72.68, 108.36 60.12 2.61 30
18 08/19/2021 05:05:26 -72.67, -84.41 119.88 08/19/2021 05:04:58 -72.69, -84.34 119.87 2.70 28
19 08/19/2021 05:56:06 72.68, 82.92 60.13 08/19/2021 05:55:44 72.68, 82.98 60.14 1.94 22
20 08/19/2021 06:46:47 -72.70,-109.69 119.83 08/19/2021 06:46:28 -72.69,-109.72 119.84 2.03 19
21 08/19/2021 07:37:27 72.71, 57.65 60.18 08/19/2021 07:37:14 72.69, 57.60 60.17 2.80 13
22 08/19/2021 08:28:09 -72.68,-135.07 119.83 08/19/2021 08:27:58 -72.69,-135.10 119.82 1.31 11
23 08/19/2021 09:18:49 72.68, 32.26 60.19 08/19/2021 09:18:44 72.69, 32.22 60.19 1.62 5
24 08/19/2021 10:09:31 -72.66,-160.45 119.82 08/19/2021 10:09:27 -72.64,-160.38 119.85 3.29 4
25 08/19/2021 11:00:11 72.66, 6.88 60.19 08/19/2021 11:00:13 72.64, 6.94 60.17 3.25 2
26 08/19/2021 11:50:53 -72.64, 174.16 119.82 08/19/2021 11:50:57 -72.65, 174.24 119.82 2.60 4
27 08/19/2021 12:41:33 72.64, -18.50 60.20 08/19/2021 12:41:43 72.64, -18.44 60.19 1.97 10
28 08/19/2021 13:32:14 -72.67, 148.89 119.77 08/19/2021 13:32:27 -72.65, 148.86 119.79 2.65 13
29 08/19/2021 14:22:54 72.67, -43.78 60.25 08/19/2021 14:23:13 72.65, -43.82 60.22 3.30 19
30 08/19/2021 15:13:36 -72.65, 123.50 119.77 08/19/2021 15:13:57 -72.65, 123.48 119.77 0.83 21
31 08/19/2021 16:04:16 72.65, -69.16 60.25 08/19/2021 16:04:43 72.65, -69.20 60.24 1.44 27
32 08/19/2021 16:54:58 -72.63, 98.12 119.76 08/19/2021 16:55:27 -72.66, 98.10 119.74 2.86 29
33 08/19/2021 17:45:38 72.63, -94.54 60.25 08/19/2021 17:46:13 72.65, -94.59 60.27 2.73 35
34 08/19/2021 18:36:20 -72.61, 72.74 119.76 08/19/2021 18:36:56 -72.61, 72.82 119.77 2.70 36
35 08/19/2021 19:27:00 72.61,-119.93 60.26 08/19/2021 19:27:42 72.61,-119.86 60.24 2.21 42
36 08/19/2021 20:17:41 -72.64, 47.46 119.71 08/19/2021 20:18:26 -72.61, 47.44 119.74 3.34 45
37 08/19/2021 21:08:22 72.59,-145.31 60.26 08/19/2021 21:09:12 72.61,-145.24 60.27 2.96 50
38 08/19/2021 21:59:03 -72.62, 22.08 119.70 08/19/2021 21:59:56 -72.62, 22.06 119.72 0.93 53
39 08/19/2021 22:49:43 72.62,-170.59 60.31 08/19/2021 22:50:42 72.61,-170.62 60.29 1.59 59
40 08/19/2021 23:40:25 -72.60, -3.30 119.70 08/19/2021 23:41:26 -72.62, -3.32 119.69 2.10 61
41 08/20/2021 00:31:05 72.60, 164.03 60.32 08/20/2021 00:32:12 72.62, 163.99 60.32 2.09 67
42 08/20/2021 01:21:47 -72.58, -28.68 119.69 08/20/2021 01:22:55 -72.57, -28.60 119.72 2.98 68
43 08/20/2021 02:12:28 72.53, 138.55 60.28 08/20/2021 02:13:41 72.57, 138.72 60.29 7.19 73
44 08/20/2021 03:03:11 -72.46, -54.27 119.78 08/20/2021 03:04:24 -72.52, -53.88 119.75 15.02 73
45 08/20/2021 03:53:55 72.25, 112.66 60.06 08/20/2021 03:55:06 72.32, 113.85 60.04 40.84 71
46 08/20/2021 04:44:38 -72.18, -80.15 120.00 08/20/2021 04:45:48 -72.22, -78.65 120.05 51.12 70
47 08/20/2021 05:35:23 71.92, 86.69 59.79 08/20/2021 05:36:29 71.96, 89.16 59.68 85.20 66
48 08/20/2021 06:26:06 -71.85,-106.11 120.26 08/20/2021 06:27:12 -71.92,-103.45 120.36 92.46 66



Historial Predications of SNOs between METOP-B and NPP
